| time (UTC) | temp F | wind direction | speed MPH | gust MPH | rain 1hr in | rain 24hr in | rain mn in | humidity % | barometer mb |
| 20260502213912 | 78 | 0.0 | 0.0 | 0.00 | 0.00 | 0.00 | 35 | 1005.4 | |
| 20260502212912 | 78 | 0.0 | 0.0 | 0.00 | 0.00 | 0.00 | 35 | 1005.5 | |
| 20260502211912 | 78 | 0.0 | 0.0 | 0.00 | 0.00 | 0.00 | 36 | 1005.5 | |
| 20260502210912 | 78 | 0.0 | 0.0 | 0.00 | 0.00 | 0.00 | 36 | 1005.5 | |
| 20260502205912 | 78 | 0.0 | 0.0 | 0.00 | 0.00 | 0.00 | 36 | 1005.5 | |
| 20260502204913 | 78 | 0.0 | 0.0 | 0.00 | 0.00 | 0.00 | 36 | 1005.6 | |
| 20260502203912 | 78 | 0.0 | 0.0 | 0.00 | 0.00 | 0.00 | 36 | 1005.7 | |
| 20260502202913 | 78 | 0.0 | 0.0 | 0.00 | 0.00 | 0.00 | 36 | 1005.6 | |
| 20260502201912 | 78 | 0.0 | 0.0 | 0.00 | 0.00 | 0.00 | 36 | 1005.7 | |
| 20260502200912 | 77 | 0.0 | 0.0 | 0.00 | 0.00 | 0.00 | 36 | 1005.0 | |
| 20260502195912 | 77 | 0.0 | 0.0 | 0.00 | 0.00 | 0.00 | 36 | 1005.1 | |
| 20260502194912 | 78 | 0.0 | 0.0 | 0.00 | 0.00 | 0.00 | 34 | 1005.6 | |
| 20260502193912 | 78 | 0.0 | 0.0 | 0.00 | 0.00 | 0.00 | 32 | 1005.5 | |
| 20260502192912 | 78 | 0.0 | 0.0 | 0.00 | 0.00 | 0.00 | 31 | 1005.4 | |
| 20260502191912 | 78 | 0.0 | 0.0 | 0.00 | 0.00 | 0.00 | 30 | 1005.4 | |
| 20260502190912 | 79 | 0.0 | 0.0 | 0.00 | 0.00 | 0.00 | 30 | 1005.3 | |
| 20260502185912 | 79 | 0.0 | 0.0 | 0.00 | 0.00 | 0.00 | 30 | 1005.2 | |
| 20260502184912 | 79 | 0.0 | 0.0 | 0.00 | 0.00 | 0.00 | 30 | 1005.1 | |
| 20260502183912 | 79 | 0.0 | 0.0 | 0.00 | 0.00 | 0.00 | 30 | 1005.1 | |
| 20260502182912 | 79 | 0.0 | 0.0 | 0.00 | 0.00 | 0.00 | 30 | 1005.1 | |
| 20260502181912 | 80 | 0.0 | 0.0 | 0.00 | 0.00 | 0.00 | 30 | 1004.9 | |
| 20260502180914 | 80 | 0.0 | 0.0 | 0.00 | 0.00 | 0.00 | 30 | 1004.9 | |
| 20260502163912 | 80 | 0.0 | 0.0 | 0.00 | 0.00 | 0.00 | 31 | 1005.1 | |
| 20260502162911 | 80 | 0.0 | 0.0 | 0.00 | 0.00 | 0.00 | 31 | 1005.1 | |
| 20260502161912 | 80 | 0.0 | 0.0 | 0.00 | 0.00 | 0.00 | 31 | 1005.3 | |
| 20260502160912 | 80 | 0.0 | 0.0 | 0.00 | 0.00 | 0.00 | 31 | 1005.4 | |
| 20260502151913 | 81 | 0.0 | 0.0 | 0.00 | 0.00 | 0.00 | 30 | 1006.1 | |
| 20260502150912 | 80 | 0.0 | 0.0 | 0.00 | 0.00 | 0.00 | 31 | 1005.3 | |
| 20260502122912 | 95 | 0.0 | 0.0 | 0.00 | 0.00 | 0.00 | 20 | 1008.1 | |
| 20260502121912 | 95 | 0.0 | 0.0 | 0.00 | 0.00 | 0.00 | 21 | 1008.3 | |
| 20260502120912 | 95 | 0.0 | 0.0 | 0.00 | 0.00 | 0.00 | 20 | 1008.5 | |
| 20260502115912 | 95 | 0.0 | 0.0 | 0.00 | 0.00 | 0.00 | 20 | 1008.6 | |
| 20260502114912 | 95 | 0.0 | 0.0 | 0.00 | 0.00 | 0.00 | 21 | 1008.8 | |
| 20260502113912 | 92 | 0.0 | 0.0 | 0.00 | 0.00 | 0.00 | 23 | 1008.9 | |
| 20260502112911 | 91 | 0.0 | 0.0 | 0.00 | 0.00 | 0.00 | 23 | 1009.1 | |
| 20260502111912 | 88 | 0.0 | 0.0 | 0.00 | 0.00 | 0.00 | 25 | 1009.2 | |
| 20260502110912 | 85 | 0.0 | 0.0 | 0.00 | 0.00 | 0.00 | 26 | 1008.4 | |
| 20260502105912 | 86 | 0.0 | 0.0 | 0.00 | 0.00 | 0.00 | 27 | 1009.5 | |
| 20260502104912 | 83 | 0.0 | 0.0 | 0.00 | 0.00 | 0.00 | 30 | 1009.6 | |
| 20260502103912 | 82 | 0.0 | 0.0 | 0.00 | 0.00 | 0.00 | 31 | 1009.8 | |
| 20260502102912 | 81 | 0.0 | 0.0 | 0.00 | 0.00 | 0.00 | 30 | 1009.8 | |
| 20260502101912 | 80 | 0.0 | 0.0 | 0.00 | 0.00 | 0.00 | 30 | 1009.9 | |
| 20260502100911 | 79 | 0.0 | 0.0 | 0.00 | 0.00 | 0.00 | 31 | 1010.0 | |
| 20260502090912 | 76 | 0.0 | 0.0 | 0.00 | 0.00 | 0.00 | 32 | 1010.7 | |
| 20260502070912 | 75 | 0.0 | 0.0 | 0.00 | 0.00 | 0.00 | 34 | 1011.7 | |
| 20260502065912 | 75 | 0.0 | 0.0 | 0.00 | 0.00 | 0.00 | 34 | 1011.7 | |
| 20260502064912 | 75 | 0.0 | 0.0 | 0.00 | 0.00 | 0.00 | 34 | 1011.8 | |
| 20260502063912 | 74 | 0.0 | 0.0 | 0.00 | 0.00 | 0.00 | 35 | 1011.8 | |
| 20260502062911 | 74 | 0.0 | 0.0 | 0.00 | 0.00 | 0.00 | 35 | 1011.9 | |
| 20260502061913 | 74 | 0.0 | 0.0 | 0.00 | 0.00 | 0.00 | 35 | 1012.0 | |
| 20260502060912 | 74 | 0.0 | 0.0 | 0.00 | 0.00 | 0.00 | 36 | 1012.0 | |
| 20260502055912 | 74 | 0.0 | 0.0 | 0.00 | 0.00 | 0.00 | 36 | 1012.0 | |
| 20260502054912 | 74 | 0.0 | 0.0 | 0.00 | 0.00 | 0.00 | 36 | 1012.2 | |
| 20260502053912 | 73 | 0.0 | 0.0 | 0.00 | 0.00 | 0.00 | 36 | 1012.2 | |
| 20260502052912 | 73 | 0.0 | 0.0 | 0.00 | 0.00 | 0.00 | 37 | 1012.3 | |
| 20260502051912 | 73 | 0.0 | 0.0 | 0.00 | 0.00 | 0.00 | 37 | 1012.3 | |
| 20260502050911 | 73 | 0.0 | 0.0 | 0.00 | 0.00 | 0.00 | 37 | 1012.2 | |
| 20260502045911 | 73 | 0.0 | 0.0 | 0.00 | 0.00 | 0.00 | 37 | 1012.1 | |
| 20260502044912 | 73 | 0.0 | 0.0 | 0.00 | 0.00 | 0.00 | 37 | 1012.3 | |
| 20260502043912 | 73 | 0.0 | 0.0 | 0.00 | 0.00 | 0.00 | 37 | 1012.4 | |
| 20260502042912 | 73 | 0.0 | 0.0 | 0.00 | 0.00 | 0.00 | 37 | 1012.4 | |
| 20260502041913 | 73 | 0.0 | 0.0 | 0.00 | 0.00 | 0.00 | 37 | 1012.4 | |
| 20260502040913 | 72 | 0.0 | 0.0 | 0.00 | 0.00 | 0.00 | 36 | 1011.9 | |
| 20260502035912 | 73 | 0.0 | 0.0 | 0.00 | 0.00 | 0.00 | 36 | 1012.4 | |
| 20260502034912 | 73 | 0.0 | 0.0 | 0.00 | 0.00 | 0.00 | 37 | 1012.5 | |
| 20260502033912 | 73 | 0.0 | 0.0 | 0.00 | 0.00 | 0.00 | 36 | 1012.5 | |
| 20260502032914 | 73 | 0.0 | 0.0 | 0.00 | 0.00 | 0.00 | 37 | 1012.7 | |
| 20260502031912 | 73 | 0.0 | 0.0 | 0.00 | 0.00 | 0.00 | 37 | 1012.7 | |
| 20260502030912 | 73 | 0.0 | 0.0 | 0.00 | 0.00 | 0.00 | 37 | 1012.9 | |
| 20260502025912 | 73 | 0.0 | 0.0 | 0.00 | 0.00 | 0.00 | 37 | 1013.0 | |
| 20260502024913 | 73 | 0.0 | 0.0 | 0.00 | 0.00 | 0.00 | 37 | 1013.1 | |
| 20260502023912 | 73 | 0.0 | 0.0 | 0.00 | 0.00 | 0.00 | 37 | 1013.2 | |
| 20260502022916 | 73 | 0.0 | 0.0 | 0.00 | 0.00 | 0.00 | 37 | 1013.2 | |
| 20260502021913 | 74 | 0.0 | 0.0 | 0.00 | 0.00 | 0.00 | 37 | 1013.2 | |
| 20260502020912 | 74 | 0.0 | 0.0 | 0.00 | 0.00 | 0.00 | 37 | 1013.2 | |
| 20260502015912 | 73 | 0.0 | 0.0 | 0.00 | 0.00 | 0.00 | 37 | 1012.7 | |
| 20260502014912 | 74 | 0.0 | 0.0 | 0.00 | 0.00 | 0.00 | 37 | 1013.4 | |
| 20260502013912 | 73 | 0.0 | 0.0 | 0.00 | 0.00 | 0.00 | 37 | 1012.9 | |
| 20260502012912 | 74 | 0.0 | 0.0 | 0.00 | 0.00 | 0.00 | 37 | 1013.5 | |
| 20260502011916 | 74 | 0.0 | 0.0 | 0.00 | 0.00 | 0.00 | 38 | 1013.7 | |
| 20260502010917 | 74 | 0.0 | 0.0 | 0.00 | 0.00 | 0.00 | 38 | 1013.6 | |
| 20260502005911 | 74 | 0.0 | 0.0 | 0.00 | 0.00 | 0.00 | 37 | 1013.8 | |
| 20260502004912 | 74 | 0.0 | 0.0 | 0.00 | 0.00 | 0.00 | 38 | 1013.7 | |
| 20260502003912 | 74 | 0.0 | 0.0 | 0.00 | 0.00 | 0.00 | 38 | 1013.9 | |
| 20260502002912 | 74 | 0.0 | 0.0 | 0.00 | 0.00 | 0.00 | 38 | 1013.9 | |
| 20260502001912 | 74 | 0.0 | 0.0 | 0.00 | 0.00 | 0.00 | 38 | 1013.3 | |
| 20260502000912 | 75 | 0.0 | 0.0 | 0.00 | 0.00 | 0.00 | 38 | 1014.0 | |
| 20260501235912 | 75 | 0.0 | 0.0 | 0.00 | 0.00 | 0.00 | 38 | 1014.1 | |
| 20260501234912 | 75 | 0.0 | 0.0 | 0.00 | 0.00 | 0.00 | 38 | 1014.2 | |
| 20260501233912 | 75 | 0.0 | 0.0 | 0.00 | 0.00 | 0.00 | 38 | 1014.3 | |
| 20260501232912 | 75 | 0.0 | 0.0 | 0.00 | 0.00 | 0.00 | 38 | 1014.3 | |
| 20260501231912 | 75 | 0.0 | 0.0 | 0.00 | 0.00 | 0.00 | 38 | 1014.4 | |
| 20260501230912 | 75 | 0.0 | 0.0 | 0.00 | 0.00 | 0.00 | 38 | 1014.4 | |
| 20260501225912 | 75 | 0.0 | 0.0 | 0.00 | 0.00 | 0.00 | 38 | 1014.5 | |
| 20260501224912 | 75 | 0.0 | 0.0 | 0.00 | 0.00 | 0.00 | 39 | 1014.5 | |
| 20260501223912 | 75 | 0.0 | 0.0 | 0.00 | 0.00 | 0.00 | 39 | 1014.5 | |
| 20260501222912 | 75 | 0.0 | 0.0 | 0.00 | 0.00 | 0.00 | 38 | 1014.5 | |
| 20260501221912 | 75 | 0.0 | 0.0 | 0.00 | 0.00 | 0.00 | 38 | 1014.6 | |
| 20260501220912 | 75 | 0.0 | 0.0 | 0.00 | 0.00 | 0.00 | 38 | 1014.6 | |
| 20260501215912 | 75 | 0.0 | 0.0 | 0.00 | 0.00 | 0.00 | 38 | 1014.6 | |
| 20260501214912 | 76 | 0.0 | 0.0 | 0.00 | 0.00 | 0.00 | 38 | 1014.7 |